Location: Ettringen
(48.1054°N, 10.6545°E)
Time: 02:47:54
(UTC+00:00)

Resurs 01 Rocket - Pass Details

Date: 18 November 2025
Orbit: 627 x 636 km, 97.7° (Epoch: 04 December)

Event Time Altitude Azimuth Distance (km) Brightness Sun altitude
Exits shadow 17:30:08 18° 21° (NNE) 1,575 3.3 -18.8°
Drops below altitude 10° 17:31:34 10° 8° (N) 2,035 4.0 -19.1°
Sets 17:34:01 0° 356° (N) 2,947 5.0 -19.5°
